SCP
0 0 1 1 0 0 0 0 0 0 0 0 0 0 0 0 0 0 0 0 0 0 0 0 0 0 0 0 0 0 0 0 0 0 0 0 0 0 0 0 0 0 0
0 0 1 1 0 0 0 0 0 0 0 0 0 0 0 0 0 0 0 0 0 0 0 0 0 0 0 0 0 0 0 0 0 0 0 0 0 0 0 0 0 0 0
0 0 0 1 1 1 0 0 0 0 0 0 0 0 0 0 0 0 0 0 0 0 0 0 0 0 0 0 0 0 0 0 0 0 0 0 0 0 0 0 0 0 0
0 0 0 1 1 1 1 0 0 0 0 0 0 0 0 0 0 0 0 0 0 0 0 0 0 0 0 0 0 0 0 0 0 0 0 0 0 0 0 0 0 0 0
0 1 0 1 1 1 1 1 0 0 0 0 0 0 0 0 0 0 0 0 0 0 0 0 0 0 0 0 0 0 0 0 0 0 0 0 0 0 0 0 0 0 0
0 0 1 1 1 1 1 1 1 0 0 0 0 0 0 0 0 0 0 0 0 0 0 0 0 0 0 0 0 0 0 0 0 0 0 0 0 0 1 1 0 0 0
0 0 1 2 1 1 1 1 1 1 1 0 0 0 0 0 0 0 0 0 0 0 0 0 0 0 0 0 0 0 0 0 0 0 0 0 0 0 0 0 1 0 0
0 0 0 2 1 1 1 1 1 1 1 1 1 0 0 0 0 0 0 0 0 0 0 0 0 0 0 0 0 0 0 0 0 0 0 0 0 0 0 0 1 1 0
0 0 0 1 1 1 1 1 1 1 1 1 1 1 1 1 0 0 0 0 0 0 0 0 0 0 0 0 0 0 0 0 0 0 0 0 1 0 0 0 1 1 0
0 0 0 1 1 1 1 1 2 2 1 1 1 1 1 1 1 1 0 0 0 0 0 0 0 0 0 0 0 0 0 0 0 0 0 0 0 0 0 0 1 1 0
0 0 0 0 1 1 0 1 2 2 2 2 1 1 1 0 0 0 0 0 0 0 0 0 0 0 0 0 0 0 0 0 0 0 0 0 0 0 0 0 0 1 1
0 0 0 1 1 1 0 1 1 1 1 1 1 1 1 0 0 0 1 0 0 0 0 0 0 0 0 0 0 0 0 0 0 0 0 1 0 0 0 0 0 0 1
0 0 0 2 2 1 1 1 2 1 1 1 1 1 1 1 1 1 0 1 0 0 0 0 0 0 0 0 0 0 0 0 0 0 0 0 0 0 0 0 0 0 1
0 0 0 1 3 3 1 1 1 2 1 1 1 1 1 1 1 1 0 0 1 0 0 0 0 0 0 0 0 0 0 0 0 0 0 0 0 0 0 0 0 0 0
0 0 0 1 4 4 3 1 2 1 1 1 1 1 1 1 1 1 1 1 0 0 0 0 0 0 0 0 0 0 0 0 0 0 0 0 0 0 0 0 0 0 1
0 0 0 1 3 3 3 5 5 3 2 1 1 1 1 1 1 1 1 1 1 0 0 0 0 0 0 0 0 0 0 0 0 0 0 0 0 -0 0 0 0 0 1
0 0 0 2 3 5 4 2 3 2 1 1 1 1 1 1 1 1 1 1 1 1 0 0 0 0 0 0 0 0 0 0 0 0 0 0 0 0 0 0 0 0 1
0 0 0 0 2 5 4 3 3 1 1 1 1 1 1 1 1 1 1 1 1 1 1 1 0 0 0 0 0 0 0 0 0 0 0 0 0 0 0 -0 0 0 0
0 1 0 1 1 4 3 3 2 3 1 0 1 1 1 1 1 1 1 1 1 1 1 1 0 0 0 0 0 0 0 0 0 0 0 0 0 0 0 0 -0 0 0
0 0 1 2 3 4 3 3 1 1 1 1 1 1 1 1 1 1 1 1 1 1 0 0 0 0 0 0 0 0 0 0 0 0 0 0 0 0 0 0 0 0 1
0 1 1 1 3 3 3 2 1 1 1 1 1 1 1 1 1 1 1 1 1 1 0 0 0 0 0 0 0 0 0 0 0 0 0 0 0 0 0 0 0 1 1
0 0 0 1 2 2 2 1 1 1 0 1 1 1 1 1 1 1 1 1 0 1 0 0 0 0 0 0 0 0 0 0 0 0 0 0 0 0 0 0 0 1 1
0 0 0 1 1 2 2 2 1 1 1 1 0 1 1 1 1 1 1 0 0 0 0 0 0 0 0 0 0 0 0 0 0 0 0 0 0 0 0 0 0 1 1
0 0 1 1 1 1 1 1 1 1 0 0 1 1 1 1 0 0 0 0 0 0 0 0 0 0 0 0 0 -0 0 0 0 0 0 0 0 0 0 0 0 0 0
0 0 1 1 0 1 0 1 0 0 0 0 0 0 0 1 0 0 0 0 0 0 0 0 0 0 -0 -0 -0 -0 0 0 0 0 0 0 0 0 0 0 1 0 1
0 0 0 0 0 0 0 0 0 0 0 0 0 0 1 0 0 0 0 0 0 0 0 0 0 0 0 0 0 0 0 0 0 0 0 0 0 0 0 0 0 0 0
Wind_Speed_500mb
22 16 26 25 25 19 16 14 12 8 7 8 10 11 12 14 16 21 23 22 22 23 20 19 22 25 27 28 30 30 31 32 31 29 27 25 24 23 21 18 11 12 19
30 19 28 29 24 20 18 16 14 11 9 7 8 11 13 15 16 18 22 23 21 22 23 21 17 20 22 25 25 27 29 32 34 33 31 26 25 27 26 25 17 23 22
32 22 29 30 24 22 21 19 18 14 12 7 6 10 13 16 17 17 18 21 21 18 18 21 23 17 16 20 23 24 27 29 32 34 34 27 19 25 35 31 26 21 23
32 22 33 33 29 26 24 20 19 15 12 8 7 9 11 15 17 19 19 20 20 19 18 18 20 20 19 15 17 21 24 25 29 31 30 23 20 32 33 38 31 24 26
30 23 33 35 31 29 27 22 18 15 13 10 8 11 13 14 17 21 20 19 19 21 21 20 20 18 21 22 18 18 21 24 27 25 20 22 22 25 32 32 35 30 25
27 31 33 37 35 33 32 27 22 17 13 10 9 11 13 15 18 20 22 21 22 26 28 27 26 21 27 28 25 23 20 22 23 20 20 20 28 28 30 29 32 32 32
21 31 36 40 40 39 38 33 28 23 18 15 12 14 16 19 20 19 21 25 29 29 32 34 33 29 32 34 35 31 25 24 21 19 21 23 22 33 41 35 33 29 30
25 33 38 41 44 46 45 41 35 29 25 23 22 19 20 23 23 24 25 29 34 35 37 39 37 38 38 36 35 39 36 29 23 23 23 25 29 37 40 38 33 30 30
28 34 37 41 50 52 51 49 45 38 34 30 31 27 25 27 27 26 33 36 39 39 42 46 48 46 44 44 42 40 40 36 30 26 28 26 41 41 39 34 32 30 29
31 36 37 39 42 57 58 58 55 48 43 39 36 34 32 35 31 30 33 35 37 38 36 39 42 46 48 51 48 47 46 42 38 27 27 35 24 33 37 32 32 30 31
32 34 39 43 41 45 51 56 60 54 49 45 42 39 37 32 24 31 31 37 46 43 42 36 32 34 37 44 47 47 47 38 31 30 29 40 39 39 40 34 33 32 34
44 36 43 48 48 43 42 44 47 58 54 49 44 33 28 24 24 27 32 45 42 38 34 30 28 26 27 23 26 32 31 35 34 34 34 33 35 38 37 34 33 36 35
46 32 41 50 61 50 44 45 35 36 35 34 34 31 28 26 24 26 25 31 33 29 25 24 21 18 16 23 24 26 31 29 34 37 32 38 50 42 41 35 32 38 38
44 37 38 50 59 63 47 47 42 35 36 33 30 32 30 24 24 25 24 25 28 24 23 21 21 25 32 27 24 33 25 25 35 34 37 38 40 45 44 35 32 37 40
48 41 37 53 66 62 67 48 48 41 39 34 31 30 29 26 26 26 32 36 26 26 27 24 25 29 30 27 28 32 39 43 18 32 39 35 33 40 43 36 32 37 40
48 43 36 54 64 67 59 59 60 52 40 39 32 29 32 28 25 25 31 37 32 27 28 29 32 36 28 25 28 27 29 32 39 29 32 50 26 33 38 36 33 36 39
47 41 40 54 68 70 64 69 57 46 46 35 29 31 31 29 26 28 30 32 36 36 36 33 33 32 28 29 29 28 27 34 30 39 32 29 28 26 28 32 33 34 36
45 43 41 48 62 73 59 61 57 45 40 35 28 27 28 29 28 29 31 35 34 37 37 37 33 31 30 28 29 27 31 31 36 34 31 31 29 24 23 22 30 32 33
49 51 44 52 55 61 53 51 50 46 37 31 28 27 27 28 26 36 37 36 38 37 37 30 30 31 27 29 25 23 25 28 33 29 27 27 29 28 29 26 20 30 30
40 41 42 50 54 58 46 49 41 40 34 29 26 26 27 26 28 36 38 38 36 37 36 32 29 29 27 28 29 32 29 28 28 27 28 26 27 28 25 18 16 28 27
34 37 43 50 53 56 50 47 43 37 29 25 24 26 27 23 28 30 33 34 34 37 35 28 30 29 30 28 24 25 22 27 35 33 26 28 27 27 28 31 20 28 27
27 32 35 42 52 52 48 44 38 32 23 21 21 23 22 23 25 33 33 32 35 31 28 27 29 29 32 30 24 20 16 22 25 29 28 27 27 23 26 27 24 31 33
26 31 37 43 49 50 42 40 33 27 22 20 20 20 24 26 24 27 28 29 27 25 23 28 31 34 29 31 36 22 16 19 30 31 31 28 30 34 29 29 30 34 38
26 30 37 43 46 45 48 36 34 24 18 18 17 14 14 20 19 23 26 22 17 19 24 23 21 24 30 28 31 38 24 15 35 26 29 31 29 28 30 31 39 37 38
31 36 41 44 45 43 40 30 26 21 17 13 13 15 16 19 22 19 13 14 15 15 17 17 17 17 21 21 29 31 23 19 34 14 35 28 32 28 28 30 27 30 38
36 41 44 47 43 38 34 28 23 20 13 11 9 12 23 24 21 16 11 10 16 10 10 10 8 9 12 15 19 17 19 17 16 17 22 30 27 26 23 21 23 27 35
Wind_Direction_500mb
157 178 190 195 191 191 196 208 216 233 251 280 299 300 291 282 277 280 281 278 278 280 279 272 266 265 265 266 268 262 254 251 244 244 243 243 238 239 238 234 215 175 199
163 193 192 194 188 191 191 200 211 221 236 270 297 306 302 295 289 282 281 282 278 279 286 286 273 266 266 264 265 264 258 250 247 241 242 242 246 245 239 231 226 206 215
166 199 191 193 191 191 193 200 208 209 220 244 292 310 310 304 295 287 278 274 277 273 278 290 296 287 270 271 270 266 263 257 251 246 241 240 250 259 257 244 230 228 219
175 204 196 194 196 192 198 197 207 204 213 248 289 308 311 303 296 289 280 266 265 268 271 277 284 294 298 278 271 273 268 264 257 251 245 252 253 264 271 248 237 227 222
186 212 200 195 195 191 195 193 202 203 214 243 286 307 313 306 295 288 281 271 256 267 268 283 276 266 280 290 286 274 268 269 268 262 264 247 246 251 257 257 241 235 228
200 211 206 197 202 197 199 197 198 203 214 232 268 297 312 305 292 285 277 272 270 275 276 278 279 249 257 267 274 273 270 269 268 269 259 243 238 241 247 251 240 235 231
217 202 214 202 206 207 207 206 206 212 217 237 267 298 316 312 302 283 269 274 278 278 275 276 269 259 259 259 263 262 264 264 262 257 253 242 244 253 252 244 242 230 230
226 212 211 209 210 212 213 213 216 219 227 244 259 280 307 310 301 290 285 280 277 271 269 268 264 265 261 259 256 261 260 258 257 264 246 244 246 249 255 244 237 232 227
242 219 210 230 214 216 218 217 221 226 235 246 257 267 283 296 289 284 276 275 280 276 273 272 271 264 258 262 257 255 259 254 250 234 246 250 250 254 263 242 234 231 226
262 239 223 222 227 220 220 222 224 230 237 244 255 262 274 285 288 292 291 281 274 281 280 276 267 263 261 256 256 257 258 256 250 243 247 236 246 246 260 243 228 226 224
264 249 233 223 221 222 218 227 225 231 236 241 250 259 271 278 274 287 303 277 288 288 286 279 274 265 261 257 259 260 257 250 244 245 243 245 245 253 263 244 224 219 221
270 248 238 221 217 216 212 222 236 234 233 239 247 252 271 267 260 255 256 271 294 298 283 284 284 280 267 255 269 271 267 242 234 233 239 232 238 252 260 238 225 219 222
271 262 235 225 217 211 212 211 223 220 221 230 232 235 243 248 261 272 283 293 296 303 308 291 302 297 251 251 254 238 245 230 225 229 242 241 249 254 256 240 231 221 222
262 259 231 218 225 213 211 212 214 217 217 218 231 233 238 248 263 271 272 269 270 270 266 262 256 246 242 248 260 246 243 240 231 230 237 247 251 259 251 242 235 221 225
262 258 247 216 224 227 205 213 211 212 217 219 221 236 238 240 252 259 269 260 252 262 259 264 253 257 261 252 245 249 244 228 247 220 229 244 251 261 246 241 236 223 225
261 255 244 218 216 229 214 199 214 205 213 215 220 232 245 242 248 256 264 271 265 259 258 246 251 255 258 248 256 239 248 230 222 230 232 233 258 269 243 239 236 226 223
259 254 234 218 217 229 224 202 209 209 204 216 221 232 235 242 258 261 262 263 255 250 255 252 255 258 256 251 253 247 236 231 226 228 224 224 245 274 252 244 236 224 226
258 247 239 216 218 223 214 204 206 207 204 210 221 232 245 250 259 255 262 263 264 255 256 256 252 247 242 246 250 243 232 226 222 230 228 225 232 243 260 261 239 222 222
256 251 235 216 209 213 210 203 203 206 200 207 217 230 241 251 258 271 266 267 268 262 257 252 249 241 240 241 239 243 237 225 226 216 219 223 226 225 237 239 243 223 221
249 242 225 213 203 209 200 199 200 205 204 206 218 231 241 252 261 268 268 268 267 263 256 256 242 232 233 241 246 243 241 218 220 215 217 220 224 217 220 239 220 222 221
244 224 207 204 195 195 193 192 195 203 200 209 220 234 244 257 262 261 259 267 265 264 259 245 235 233 240 233 245 239 237 215 207 219 218 219 219 219 209 219 215 211 226
222 209 195 188 187 185 189 186 194 195 205 214 228 235 250 260 268 259 268 269 268 262 253 240 232 239 245 239 228 217 212 210 217 213 217 216 215 205 214 209 210 218 237
201 190 183 180 181 176 179 178 178 181 190 209 229 249 264 279 257 267 277 272 263 256 241 239 241 241 243 239 230 194 193 208 191 202 210 209 215 211 199 204 215 221 222
187 175 171 170 171 167 170 177 176 182 204 224 221 244 246 257 262 262 264 260 258 242 244 249 254 240 235 230 211 210 219 237 169 176 205 203 206 209 201 198 207 214 207
172 166 163 162 160 168 160 171 178 187 216 230 233 244 265 256 254 252 267 236 244 250 253 252 242 230 216 209 197 197 222 238 219 188 180 194 201 203 199 203 203 206 198
162 160 157 158 160 161 163 169 160 190 196 214 233 252 264 267 270 234 228 247 252 256 242 209 209 203 209 209 198 203 209 213 226 224 170 181 183 185 187 198 204 197 194
Wind_Speed_850mb
22 16 26 25 25 19 16 14 12 8 7 8 10 11 12 14 16 21 23 22 22 23 20 19 22 25 27 28 30 30 31 32 31 29 27 25 24 23 21 18 11 12 19
30 19 28 29 24 20 18 16 14 11 9 7 8 11 13 15 16 18 22 23 21 22 23 21 17 20 22 25 25 27 29 32 34 33 31 26 25 27 26 25 17 23 22
32 22 29 30 24 22 21 19 18 14 12 7 6 10 13 16 17 17 18 21 21 18 18 21 23 17 16 20 23 24 27 29 32 34 34 27 19 25 35 31 26 21 23
32 22 33 33 29 26 24 20 19 15 12 8 7 9 11 15 17 19 19 20 20 19 18 18 20 20 19 15 17 21 24 25 29 31 30 23 20 32 33 38 31 24 26
30 23 33 35 31 29 27 22 18 15 13 10 8 11 13 14 17 21 20 19 19 21 21 20 20 18 21 22 18 18 21 24 27 25 20 22 22 25 32 32 35 30 25
27 31 33 37 35 33 32 27 22 17 13 10 9 11 13 15 18 20 22 21 22 26 28 27 26 21 27 28 25 23 20 22 23 20 20 20 28 28 30 29 32 32 32
21 31 36 40 40 39 38 33 28 23 18 15 12 14 16 19 20 19 21 25 29 29 32 34 33 29 32 34 35 31 25 24 21 19 21 23 22 33 41 35 33 29 30
25 33 38 41 44 46 45 41 35 29 25 23 22 19 20 23 23 24 25 29 34 35 37 39 37 38 38 36 35 39 36 29 23 23 23 25 29 37 40 38 33 30 30
28 34 37 41 50 52 51 49 45 38 34 30 31 27 25 27 27 26 33 36 39 39 42 46 48 46 44 44 42 40 40 36 30 26 28 26 41 41 39 34 32 30 29
31 36 37 39 42 57 58 58 55 48 43 39 36 34 32 35 31 30 33 35 37 38 36 39 42 46 48 51 48 47 46 42 38 27 27 35 24 33 37 32 32 30 31
32 34 39 43 41 45 51 56 60 54 49 45 42 39 37 32 24 31 31 37 46 43 42 36 32 34 37 44 47 47 47 38 31 30 29 40 39 39 40 34 33 32 34
44 36 43 48 48 43 42 44 47 58 54 49 44 33 28 24 24 27 32 45 42 38 34 30 28 26 27 23 26 32 31 35 34 34 34 33 35 38 37 34 33 36 35
46 32 41 50 61 50 44 45 35 36 35 34 34 31 28 26 24 26 25 31 33 29 25 24 21 18 16 23 24 26 31 29 34 37 32 38 50 42 41 35 32 38 38
44 37 38 50 59 63 47 47 42 35 36 33 30 32 30 24 24 25 24 25 28 24 23 21 21 25 32 27 24 33 25 25 35 34 37 38 40 45 44 35 32 37 40
48 41 37 53 66 62 67 48 48 41 39 34 31 30 29 26 26 26 32 36 26 26 27 24 25 29 30 27 28 32 39 43 18 32 39 35 33 40 43 36 32 37 40
48 43 36 54 64 67 59 59 60 52 40 39 32 29 32 28 25 25 31 37 32 27 28 29 32 36 28 25 28 27 29 32 39 29 32 50 26 33 38 36 33 36 39
47 41 40 54 68 70 64 69 57 46 46 35 29 31 31 29 26 28 30 32 36 36 36 33 33 32 28 29 29 28 27 34 30 39 32 29 28 26 28 32 33 34 36
45 43 41 48 62 73 59 61 57 45 40 35 28 27 28 29 28 29 31 35 34 37 37 37 33 31 30 28 29 27 31 31 36 34 31 31 29 24 23 22 30 32 33
49 51 44 52 55 61 53 51 50 46 37 31 28 27 27 28 26 36 37 36 38 37 37 30 30 31 27 29 25 23 25 28 33 29 27 27 29 28 29 26 20 30 30
40 41 42 50 54 58 46 49 41 40 34 29 26 26 27 26 28 36 38 38 36 37 36 32 29 29 27 28 29 32 29 28 28 27 28 26 27 28 25 18 16 28 27
34 37 43 50 53 56 50 47 43 37 29 25 24 26 27 23 28 30 33 34 34 37 35 28 30 29 30 28 24 25 22 27 35 33 26 28 27 27 28 31 20 28 27
27 32 35 42 52 52 48 44 38 32 23 21 21 23 22 23 25 33 33 32 35 31 28 27 29 29 32 30 24 20 16 22 25 29 28 27 27 23 26 27 24 31 33
26 31 37 43 49 50 42 40 33 27 22 20 20 20 24 26 24 27 28 29 27 25 23 28 31 34 29 31 36 22 16 19 30 31 31 28 30 34 29 29 30 34 38
26 30 37 43 46 45 48 36 34 24 18 18 17 14 14 20 19 23 26 22 17 19 24 23 21 24 30 28 31 38 24 15 35 26 29 31 29 28 30 31 39 37 38
31 36 41 44 45 43 40 30 26 21 17 13 13 15 16 19 22 19 13 14 15 15 17 17 17 17 21 21 29 31 23 19 34 14 35 28 32 28 28 30 27 30 38
36 41 44 47 43 38 34 28 23 20 13 11 9 12 23 24 21 16 11 10 16 10 10 10 8 9 12 15 19 17 19 17 16 17 22 30 27 26 23 21 23 27 35
Wind_Direction_850mb
157 178 190 195 191 191 196 208 216 233 251 280 299 300 291 282 277 280 281 278 278 280 279 272 266 265 265 266 268 262 254 251 244 244 243 243 238 239 238 234 215 175 199
163 193 192 194 188 191 191 200 211 221 236 270 297 306 302 295 289 282 281 282 278 279 286 286 273 266 266 264 265 264 258 250 247 241 242 242 246 245 239 231 226 206 215
166 199 191 193 191 191 193 200 208 209 220 244 292 310 310 304 295 287 278 274 277 273 278 290 296 287 270 271 270 266 263 257 251 246 241 240 250 259 257 244 230 228 219
175 204 196 194 196 192 198 197 207 204 213 248 289 308 311 303 296 289 280 266 265 268 271 277 284 294 298 278 271 273 268 264 257 251 245 252 253 264 271 248 237 227 222
186 212 200 195 195 191 195 193 202 203 214 243 286 307 313 306 295 288 281 271 256 267 268 283 276 266 280 290 286 274 268 269 268 262 264 247 246 251 257 257 241 235 228
200 211 206 197 202 197 199 197 198 203 214 232 268 297 312 305 292 285 277 272 270 275 276 278 279 249 257 267 274 273 270 269 268 269 259 243 238 241 247 251 240 235 231
217 202 214 202 206 207 207 206 206 212 217 237 267 298 316 312 302 283 269 274 278 278 275 276 269 259 259 259 263 262 264 264 262 257 253 242 244 253 252 244 242 230 230
226 212 211 209 210 212 213 213 216 219 227 244 259 280 307 310 301 290 285 280 277 271 269 268 264 265 261 259 256 261 260 258 257 264 246 244 246 249 255 244 237 232 227
242 219 210 230 214 216 218 217 221 226 235 246 257 267 283 296 289 284 276 275 280 276 273 272 271 264 258 262 257 255 259 254 250 234 246 250 250 254 263 242 234 231 226
262 239 223 222 227 220 220 222 224 230 237 244 255 262 274 285 288 292 291 281 274 281 280 276 267 263 261 256 256 257 258 256 250 243 247 236 246 246 260 243 228 226 224
264 249 233 223 221 222 218 227 225 231 236 241 250 259 271 278 274 287 303 277 288 288 286 279 274 265 261 257 259 260 257 250 244 245 243 245 245 253 263 244 224 219 221
270 248 238 221 217 216 212 222 236 234 233 239 247 252 271 267 260 255 256 271 294 298 283 284 284 280 267 255 269 271 267 242 234 233 239 232 238 252 260 238 225 219 222
271 262 235 225 217 211 212 211 223 220 221 230 232 235 243 248 261 272 283 293 296 303 308 291 302 297 251 251 254 238 245 230 225 229 242 241 249 254 256 240 231 221 222
262 259 231 218 225 213 211 212 214 217 217 218 231 233 238 248 263 271 272 269 270 270 266 262 256 246 242 248 260 246 243 240 231 230 237 247 251 259 251 242 235 221 225
262 258 247 216 224 227 205 213 211 212 217 219 221 236 238 240 252 259 269 260 252 262 259 264 253 257 261 252 245 249 244 228 247 220 229 244 251 261 246 241 236 223 225
261 255 244 218 216 229 214 199 214 205 213 215 220 232 245 242 248 256 264 271 265 259 258 246 251 255 258 248 256 239 248 230 222 230 232 233 258 269 243 239 236 226 223
259 254 234 218 217 229 224 202 209 209 204 216 221 232 235 242 258 261 262 263 255 250 255 252 255 258 256 251 253 247 236 231 226 228 224 224 245 274 252 244 236 224 226
258 247 239 216 218 223 214 204 206 207 204 210 221 232 245 250 259 255 262 263 264 255 256 256 252 247 242 246 250 243 232 226 222 230 228 225 232 243 260 261 239 222 222
256 251 235 216 209 213 210 203 203 206 200 207 217 230 241 251 258 271 266 267 268 262 257 252 249 241 240 241 239 243 237 225 226 216 219 223 226 225 237 239 243 223 221
249 242 225 213 203 209 200 199 200 205 204 206 218 231 241 252 261 268 268 268 267 263 256 256 242 232 233 241 246 243 241 218 220 215 217 220 224 217 220 239 220 222 221
244 224 207 204 195 195 193 192 195 203 200 209 220 234 244 257 262 261 259 267 265 264 259 245 235 233 240 233 245 239 237 215 207 219 218 219 219 219 209 219 215 211 226
222 209 195 188 187 185 189 186 194 195 205 214 228 235 250 260 268 259 268 269 268 262 253 240 232 239 245 239 228 217 212 210 217 213 217 216 215 205 214 209 210 218 237
201 190 183 180 181 176 179 178 178 181 190 209 229 249 264 279 257 267 277 272 263 256 241 239 241 241 243 239 230 194 193 208 191 202 210 209 215 211 199 204 215 221 222
187 175 171 170 171 167 170 177 176 182 204 224 221 244 246 257 262 262 264 260 258 242 244 249 254 240 235 230 211 210 219 237 169 176 205 203 206 209 201 198 207 214 207
172 166 163 162 160 168 160 171 178 187 216 230 233 244 265 256 254 252 267 236 244 250 253 252 242 230 216 209 197 197 222 238 219 188 180 194 201 203 199 203 203 206 198
162 160 157 158 160 161 163 169 160 190 196 214 233 252 264 267 270 234 228 247 252 256 242 209 209 203 209 209 198 203 209 213 226 224 170 181 183 185 187 198 204 197 194